[keps] orb09274.amsat
Ray Hoad
r.hoad at att.net
Thu Oct 1 18:19:21 PDT 2009
SB KEPS @ AMSAT $ORB09274.O
Orbital Elements 09274.OSCAR
HR AMSAT ORBITAL ELEMENTS FOR OSCAR SATELLITES
FROM WA5QGD FORT WORTH,TX October 1, 2009
Send Subscribe/unsubscribe to KEPS at
http://www.amsat.org/mailman/listinfo/keps
BID: ORB09274.O
TO ALL RADIO AMATEURS BT
Satellite: AO-07
Catalog number: 07530
Epoch time: 09273.59281345
Element set: 0595
Inclination: 101.4221 deg
RA of node: 294.3824 deg
Eccentricity: 0.0012123
Arg of perigee: 062.1427 deg
Mean anomaly: 298.0867 deg
Mean motion: 12.53576622 rev/day
Decay rate: -2.7e-07 rev/day^2
Epoch rev: 59592
Checksum: 303
Satellite: FO-29
Catalog number: 24278
Epoch time: 09273.75534613
Element set: 0160
Inclination: 098.5358 deg
RA of node: 133.5216 deg
Eccentricity: 0.0351378
Arg of perigee: 076.7982 deg
Mean anomaly: 287.2093 deg
Mean motion: 13.52945025 rev/day
Decay rate: -2.9e-07 rev/day^2
Epoch rev: 64802
Checksum: 331
Satellite: SO-33
Catalog number: 25509
Epoch time: 09274.78724859
Element set: 554
Inclination: 031.4324 deg
RA of node: 169.7212 deg
Eccentricity: 0.0354193
Arg of perigee: 190.6050 deg
Mean anomaly: 168.6942 deg
Mean motion: 14.28269710 rev/day
Decay rate: 4.04e-06 rev/day^2
Epoch rev: 57108
Checksum: 319
Satellite: RS-22
Catalog number: 27939
Epoch time: 09273.70597294
Element set: 0904
Inclination: 097.9256 deg
RA of node: 144.6403 deg
Eccentricity: 0.0013798
Arg of perigee: 155.4251 deg
Mean anomaly: 204.7594 deg
Mean motion: 14.63343096 rev/day
Decay rate: 2.8e-07 rev/day^2
Epoch rev: 32100
Checksum: 319
Satellite: VO-52
Catalog number: 28650
Epoch time: 09274.21538008
Element set: 331
Inclination: 097.7317 deg
RA of node: 332.2271 deg
Eccentricity: 0.0027926
Arg of perigee: 045.2921 deg
Mean anomaly: 315.0541 deg
Mean motion: 14.81625091 rev/day
Decay rate: 3.77e-06 rev/day^2
Epoch rev: 23834
Checksum: 290
/EX
SB KEPS @ AMSAT $ORB09274.D
Orbital Elements 09274.MICROS
HR AMSAT ORBITAL ELEMENTS FOR THE MICROSATS
FROM WA5QGD FORT WORTH,TX October 1, 2009
Send Subscribe/unsubscribe to KEPS at
http://www.amsat.org/mailman/listinfo/keps
BID: ORB09274.D
TO ALL RADIO AMATEURS BT
Satellite: AO-16
Catalog number: 20439
Epoch time: 09274.77250725
Element set: 715
Inclination: 098.2929 deg
RA of node: 238.3972 deg
Eccentricity: 0.0010276
Arg of perigee: 210.6092 deg
Mean anomaly: 149.4488 deg
Mean motion: 14.31834458 rev/day
Decay rate: 1.0e-07 rev/day^2
Epoch rev: 2840
Checksum: 309
Satellite: LO-19
Catalog number: 20442
Epoch time: 09274.67232865
Element set: 630
Inclination: 098.2574 deg
RA of node: 245.1515 deg
Eccentricity: 0.0011525
Arg of perigee: 206.1765 deg
Mean anomaly: 153.8835 deg
Mean motion: 14.32068816 rev/day
Decay rate: -4.0e-08 rev/day^2
Epoch rev: 2855
Checksum: 300
Satellite: AO-27
Catalog number: 22825
Epoch time: 09273.92445577
Element set: 0354
Inclination: 098.4480 deg
RA of node: 224.0748 deg
Eccentricity: 0.0007857
Arg of perigee: 317.9303 deg
Mean anomaly: 042.1271 deg
Mean motion: 14.29274237 rev/day
Decay rate: -4.0e-08 rev/day^2
Epoch rev: 83501
Checksum: 309
Satellite: IO-26
Catalog number: 22826
Epoch time: 09273.82601818
Element set: 82
Inclination: 098.4415 deg
RA of node: 224.6834 deg
Eccentricity: 0.0008393
Arg of perigee: 313.8918 deg
Mean anomaly: 046.1575 deg
Mean motion: 14.29527255 rev/day
Decay rate: 1.7e-07 rev/day^2
Epoch rev: 83510
Checksum: 315
Satellite: GO-32
Catalog number: 25397
Epoch time: 09274.44594717
Element set: 3
Inclination: 098.3238 deg
RA of node: 291.0803 deg
Eccentricity: 0.0000546
Arg of perigee: 352.1130 deg
Mean anomaly: 008.0056 deg
Mean motion: 14.23164379 rev/day
Decay rate: 7.8e-07 rev/day^2
Epoch rev: 58324
Checksum: 290
Satellite: NO-44
Catalog number: 26931
Epoch time: 09273.85748668
Element set: 277
Inclination: 067.0517 deg
RA of node: 152.1073 deg
Eccentricity: 0.0006774
Arg of perigee: 272.3657 deg
Mean anomaly: 087.6596 deg
Mean motion: 14.29567170 rev/day
Decay rate: -2.26e-06 rev/day^2
Epoch rev: 41768
Checksum: 349
Satellite: SO-50
Catalog number: 27607
Epoch time: 09273.93954920
Element set: 997
Inclination: 064.5580 deg
RA of node: 063.9040 deg
Eccentricity: 0.0054611
Arg of perigee: 179.0329 deg
Mean anomaly: 181.0885 deg
Mean motion: 14.71461875 rev/day
Decay rate: 2.8e-07 rev/day^2
Epoch rev: 36423
Checksum: 326
Satellite: CO-55
Catalog number: 27844
Epoch time: 09274.62319075
Element set: 679
Inclination: 098.7142 deg
RA of node: 282.2957 deg
Eccentricity: 0.0009380
Arg of perigee: 193.3187 deg
Mean anomaly: 166.7753 deg
Mean motion: 14.20658068 rev/day
Decay rate: 4.1e-07 rev/day^2
Epoch rev: 32437
Checksum: 340
Satellite: CO-57
Catalog number: 27848
Epoch time: 09274.54520581
Element set: 629
Inclination: 098.7177 deg
RA of node: 281.2832 deg
Eccentricity: 0.0009328
Arg of perigee: 197.6826 deg
Mean anomaly: 162.4030 deg
Mean motion: 14.20457752 rev/day
Decay rate: 3.9e-07 rev/day^2
Epoch rev: 32432
Checksum: 326
Satellite: AO-51
Catalog number: 28375
Epoch time: 09274.57606866
Element set: 498
Inclination: 098.0546 deg
RA of node: 277.9941 deg
Eccentricity: 0.0083501
Arg of perigee: 161.5603 deg
Mean anomaly: 198.8643 deg
Mean motion: 14.40653454 rev/day
Decay rate: 4.0e-08 rev/day^2
Epoch rev: 27627
Checksum: 343
Satellite: CO-56
Catalog number: 28941
Epoch time: 09274.50089293
Element set: 491
Inclination: 098.1279 deg
RA of node: 110.2710 deg
Eccentricity: 0.0043417
Arg of perigee: 083.9365 deg
Mean anomaly: 276.6848 deg
Mean motion: 16.04548000 rev/day
Decay rate: 2.73186e-03 rev/day^2
Epoch rev: 20416
Checksum: 324
Satellite: GENESAT1
Catalog number: 29655
Epoch time: 09273.93026956
Element set: 0825
Inclination: 040.0196 deg
RA of node: 239.7123 deg
Eccentricity: 0.0003554
Arg of perigee: 243.4571 deg
Mean anomaly: 116.5908 deg
Mean motion: 15.67861063 rev/day
Decay rate: 1.9032e-04 rev/day^2
Epoch rev: 15906
Checksum: 310
Satellite: CP3
Catalog number: 31129
Epoch time: 09274.69784829
Element set: 230
Inclination: 097.9774 deg
RA of node: 322.6131 deg
Eccentricity: 0.0101811
Arg of perigee: 315.8717 deg
Mean anomaly: 043.4391 deg
Mean motion: 14.52164655 rev/day
Decay rate: 4.0e-07 rev/day^2
Epoch rev: 13034
Checksum: 292
Satellite: CO-65
Catalog number: 32785
Epoch time: 09273.82516304
Element set: 0492
Inclination: 097.9344 deg
RA of node: 336.8582 deg
Eccentricity: 0.0015962
Arg of perigee: 050.3557 deg
Mean anomaly: 309.9060 deg
Mean motion: 14.81522991 rev/day
Decay rate: 3.90e-06 rev/day^2
Epoch rev: 07708
Checksum: 333
Satellite: KKS-1
Catalog number: 33493
Epoch time: 09274.86946466
Element set: 805
Inclination: 098.0647 deg
RA of node: 027.5955 deg
Eccentricity: 0.0018834
Arg of perigee: 256.1800 deg
Mean anomaly: 103.7320 deg
Mean motion: 14.80737184 rev/day
Decay rate: 2.93e-06 rev/day^2
Epoch rev: 3725
Checksum: 320
Satellite: SOHLA-1
Catalog number: 33496
Epoch time: 09274.88559506
Element set: 770
Inclination: 098.0442 deg
RA of node: 022.5691 deg
Eccentricity: 0.0005823
Arg of perigee: 313.4563 deg
Mean anomaly: 046.6158 deg
Mean motion: 14.69448143 rev/day
Decay rate: 3.2e-07 rev/day^2
Epoch rev: 3694
Checksum: 315
/EX
SB KEPS @ AMSAT $ORB09274.W
Orbital Elements 09274.WEATHER
HR AMSAT ORBITAL ELEMENTS FOR WEATHER SATELLITES
FROM WA5QGD FORT WORTH,TX October 1, 2009
Send Subscribe/unsubscribe to KEPS at
http://www.amsat.org/mailman/listinfo/keps
BID: ORB09274.W
TO ALL RADIO AMATEURS BT
Satellite: NOAA-10
Catalog number: 16969
Epoch time: 09273.93447681
Element set: 0780
Inclination: 098.6864 deg
RA of node: 299.9777 deg
Eccentricity: 0.0011524
Arg of perigee: 247.6884 deg
Mean anomaly: 112.3052 deg
Mean motion: 14.27395201 rev/day
Decay rate: 2.3e-07 rev/day^2
Epoch rev: 19859
Checksum: 349
Satellite: NOAA-11
Catalog number: 19531
Epoch time: 09273.78623590
Element set: 0799
Inclination: 098.7817 deg
RA of node: 002.0953 deg
Eccentricity: 0.0011667
Arg of perigee: 164.2029 deg
Mean anomaly: 195.9493 deg
Mean motion: 14.14904563 rev/day
Decay rate: 1.30e-06 rev/day^2
Epoch rev: 08445
Checksum: 323
Satellite: NOAA-12
Catalog number: 21263
Epoch time: 09273.94804351
Element set: 0301
Inclination: 098.7752 deg
RA of node: 282.0706 deg
Eccentricity: 0.0011793
Arg of perigee: 195.7247 deg
Mean anomaly: 164.3569 deg
Mean motion: 14.25594900 rev/day
Decay rate: 1.5e-07 rev/day^2
Epoch rev: 95546
Checksum: 314
Satellite: MET-3/5
Catalog number: 21655
Epoch time: 09274.58187751
Element set: 661
Inclination: 082.5544 deg
RA of node: 131.3553 deg
Eccentricity: 0.0012631
Arg of perigee: 278.0233 deg
Mean anomaly: 081.9456 deg
Mean motion: 13.17020654 rev/day
Decay rate: 5.1e-07 rev/day^2
Epoch rev: 87163
Checksum: 295
Satellite: MET-2/21
Catalog number: 22782
Epoch time: 09274.62537546
Element set: 579
Inclination: 082.5432 deg
RA of node: 097.5821 deg
Eccentricity: 0.0023661
Arg of perigee: 050.1928 deg
Mean anomaly: 310.1286 deg
Mean motion: 13.83638198 rev/day
Decay rate: -2.6e-07 rev/day^2
Epoch rev: 81232
Checksum: 313
Satellite: OKEAN-4
Catalog number: 23317
Epoch time: 09274.38948830
Element set: 32
Inclination: 082.5380 deg
RA of node: 235.3675 deg
Eccentricity: 0.0023076
Arg of perigee: 019.1395 deg
Mean anomaly: 341.0712 deg
Mean motion: 14.82723034 rev/day
Decay rate: 4.6e-07 rev/day^2
Epoch rev: 80810
Checksum: 283
Satellite: NOAA-14
Catalog number: 23455
Epoch time: 09273.83388782
Element set: 0777
Inclination: 098.9010 deg
RA of node: 351.1032 deg
Eccentricity: 0.0008627
Arg of perigee: 249.0561 deg
Mean anomaly: 110.9668 deg
Mean motion: 14.13771264 rev/day
Decay rate: 2.76e-06 rev/day^2
Epoch rev: 76085
Checksum: 323
Satellite: NOAA-15
Catalog number: 25338
Epoch time: 09273.95421388
Element set: 0102
Inclination: 098.5953 deg
RA of node: 260.8966 deg
Eccentricity: 0.0011594
Arg of perigee: 107.6987 deg
Mean anomaly: 252.5470 deg
Mean motion: 14.24785451 rev/day
Decay rate: -6.2e-07 rev/day^2
Epoch rev: 59183
Checksum: 337
